Orbital Elements at Epoch 2459000.5 (2020-May-31.0) TDB
Reference: JPL 6 (heliocentric ecliptic J2000)
Element | Value | Uncertainty (1-sigma) | Units |
e | .948231152997676 | 4.7961e-05 | |
a | 35.85706580500958 | 0.033428 | au |
q | 1.856278953611804 | 1.1219e-05 | au |
i | 87.18032524685354 | 0.00051694 | deg |
node | 256.195169718958 | 0.00021596 | deg |
peri | 173.7015078760704 | 0.00060289 | deg |
M | 6.096760290607551 | 0.0085307 | deg |
tp | 2457672.319289980530 (2016-Oct-10.81928998) | 0.0011934 | TDB |
period | 78426.0874326357 214.72 | 109.67 0.3003 | d yr |
n | .004590309319067115 | 6.419e-06 | deg/d |
Q | 69.85785265640735 | 0.065125 | au |
|
| | Orbit Determination Parameters
Additional Information
|